This demonstration page uses our WeatherBlox Daily Observations layout. Learn more.

Left ArrowRight Arrow

53.62937, 11.41316

Hourly Observations for July 26, 2018

Temp ( °F °C ) Dew Point ( °F °C ) Humidity (%) Winds ( mph kmh ) Pressure ( in mb ) Visibility ( mi km ) Precip ( " mm )
6:50 am 06:50 Mostly Sunny 70 21 68 20 94 94 VRB 1 2 30.03 1017 7 11 N/A
7:20 am 07:20 Mostly Sunny 72 22 66 19 83 83 VRB 1 2 30.06 1018 7 11 N/A
7:50 am 07:50 Mostly Sunny 73 23 68 20 83 83 ENE 2 4 30.06 1018 7 11 N/A
8:20 am 08:20 Mostly Sunny 77 25 66 19 69 69 VRB 2 4 30.06 1018 7 11 N/A
8:50 am 08:50 Mostly Sunny 81 27 64 18 58 58 VRB 3 6 30.06 1018 7 11 N/A
9:20 am 09:20 Mostly Sunny 82 28 63 17 51 51 VRB 2 4 30.06 1018 7 11 N/A
9:50 am 09:50 Mostly Sunny 84 29 63 17 48 48 E 5 7 30.06 1018 7 11 N/A
10:20 am 10:20 Mostly Sunny 86 30 63 17 46 46 E 6 9 30.06 1018 7 11 N/A
10:50 am 10:50 Mostly Sunny 88 31 63 17 43 43 E 5 7 30.06 1018 7 11 N/A
11:20 am 11:20 Mostly Sunny 88 31 61 16 40 40 E 9 15 30.06 1018 7 11 N/A
11:50 am 11:50 Mostly Sunny 90 32 61 16 38 38 E 7 11 30.06 1018 7 11 N/A
12:20 pm 12:20 Mostly Sunny 90 32 61 16 38 38 ENE 9 15 30.06 1018 7 11 N/A
12:50 pm 12:50 Mostly Sunny 90 32 61 16 38 38 NE 9 15 30.06 1018 7 11 N/A
1:20 pm 13:20 Mostly Sunny 90 32 61 16 38 38 ENE 9 15 30.06 1018 7 11 N/A
1:50 pm 13:50 Mostly Sunny 90 32 61 16 38 38 E 8 13 30.03 1017 7 11 N/A
2:20 pm 14:20 Mostly Sunny 91 33 63 17 38 38 ENE 9 15 30.03 1017 7 11 N/A
2:50 pm 14:50 Mostly Sunny 90 32 63 17 41 41 E 9 15 30.03 1017 7 11 N/A
3:20 pm 15:20 Mostly Sunny 90 32 63 17 41 41 NNE 15 24 30.03 1017 7 11 N/A
3:50 pm 15:50 Mostly Sunny 90 32 63 17 41 41 NNE 15 24 30.03 1017 7 11 N/A
4:20 pm 16:20 Mostly Sunny 90 32 63 17 41 41 NNE 14 22 30.03 1017 7 11 N/A
4:50 pm 16:50 Mostly Sunny 90 32 63 17 41 41 NNE 14 22 30.03 1017 7 11 N/A
5:20 pm 17:20 Mostly Sunny 90 32 61 16 38 38 NE 15 24 30.03 1017 7 11 N/A
5:50 pm 17:50 Mostly Sunny 88 31 61 16 40 40 NE 15 24 30.03 1017 7 11 N/A
6:20 pm 18:20 Mostly Sunny 88 31 61 16 40 40 NE 15 24 30.03 1017 7 11 N/A
6:50 pm 18:50 Mostly Sunny 86 30 61 16 43 43 NNE 15 24 30.03 1017 7 11 N/A
7:20 pm 19:20 Mostly Sunny 86 30 61 16 43 43 NE 12 19 30.03 1017 7 11 N/A
7:50 pm 19:50 Mostly Sunny 84 29 61 16 45 45 ENE 13 20 30.03 1017 7 11 N/A
8:20 pm 20:20 Mostly Sunny 84 29 61 16 45 45 ENE 9 15 30.03 1017 7 11 N/A
8:50 pm 20:50 Mostly Sunny 82 28 61 16 48 48 ENE 12 19 30.03 1017 7 11 N/A

Powered by AerisWeather